IW1CGW-13 Weather Reports


time (UTC)temp
C
wind
direction
speed
KPH
gust
KPH
rain 1hr
cm
rain 24hr
cm
rain mn
cm
humidity
%
barometer
mb
20260508013316 11 0.0 0.0 0.00 0.00 0.00 83 1013.9
20260508012255 11 0.0 0.0 0.00 0.00 0.00 83 1013.9
20260508011232 11 0.0 0.0 0.00 0.00 0.00 83 1013.9
20260508010207 10 0.0 0.0 0.00 0.00 0.00 83 1013.9
20260508005146 10 0.0 0.0 0.00 0.00 0.00 83 1013.9
20260508004124 10 0.0 0.0 0.00 0.00 0.00 83 1014.0
20260508003105 10 0.0 0.0 0.00 0.00 0.00 83 1014.0
20260508000001 10 0.0 0.0 0.00 0.00 0.00 83 1014.1
20260507234940 10 0.0 0.0 0.00 0.00 0.00 83 1014.2
20260507233922 10 0.0 0.0 0.00 0.00 0.00 83 1014.2
20260507231840 10 0.0 0.0 0.00 0.00 0.00 83 1014.3
20260507230820 10 0.0 0.0 0.00 0.00 0.00 83 1014.4
20260507225758 10 0.0 0.0 0.00 0.00 0.00 83 1014.4
20260507224737 10 0.0 0.0 0.00 0.00 0.00 83 1014.4
20260507223714 10 0.0 0.0 0.00 0.00 0.00 83 1014.3
20260507222651 10 0.0 0.0 0.00 0.00 0.00 83 1014.3
20260507221617 10 0.0 0.0 0.00 0.00 0.00 83 1014.2
20260507220556 10 0.0 0.0 0.00 0.00 0.00 82 1014.3
20260507215536 10 0.0 0.0 0.00 0.00 0.00 83 1014.1
20260507214515 10 0.0 0.0 0.00 0.00 0.00 83 1014.0
20260507213454 10 0.0 0.0 0.00 0.00 0.00 83 1013.9
20260507212431 10 0.0 0.0 0.00 0.00 0.00 82 1013.8
20260507211410 10 0.0 0.0 0.00 0.00 0.00 82 1013.8
20260507210349 11 0.0 0.0 0.00 0.00 0.00 82 1013.7
20260507205329 11 0.0 0.0 0.00 0.00 0.00 82 1013.7
20260507203247 11 0.0 0.0 0.00 0.00 0.00 82 1013.6
20260507202226 11 0.0 0.0 0.00 0.00 0.00 82 1013.5
20260507201202 11 0.0 0.0 0.00 0.00 0.00 82 1013.3
20260507200139 12 0.0 0.0 0.00 0.00 0.00 82 1013.2
20260507195116 12 0.0 0.0 0.00 0.00 0.00 82 1013.0
20260507194055 12 0.0 0.0 0.00 0.00 0.00 82 1012.9
20260507193035 12 0.0 0.0 0.00 0.00 0.00 82 1012.7
20260507192014 12 0.0 0.0 0.00 0.00 0.00 82 1012.6
20260507190953 12 0.0 0.0 0.00 0.00 0.00 82 1012.5
20260507185928 12 0.0 0.0 0.00 0.00 0.00 82 1012.4
20260507184907 12 0.0 0.0 0.00 0.00 0.00 82 1012.3
20260507183847 12 0.0 0.0 0.00 0.00 0.00 81 1012.4
20260507182826 13 0.0 0.0 0.00 0.00 0.00 81 1012.2
20260507181805 13 0.0 0.0 0.00 0.00 0.00 81 1012.1
20260507180743 14 0.0 0.0 0.00 0.00 0.00 81 1012.1
20260507175722 14 0.0 0.0 0.00 0.00 0.00 81 1012.0
20260507174700 15 0.0 0.0 0.00 0.00 0.00 81 1011.9
20260507173636 15 0.0 0.0 0.00 0.00 0.00 81 1011.9
20260507172616 15 0.0 0.0 0.00 0.00 0.00 80 1011.9
20260507171622 15 0.0 0.0 0.00 0.00 0.00 80 1011.8
20260507171549 15 0.0 0.0 0.00 0.00 0.00 80 1011.8
20260507170527 16 0.0 0.0 0.00 0.00 0.00 80 1011.8
20260507165506 16 0.0 0.0 0.00 0.00 0.00 79 1011.9
20260507164445 17 0.0 0.0 0.00 0.00 0.00 81 1011.7
20260507163420 16 0.0 0.0 0.00 0.00 0.00 80 1011.7
20260507162400 16 0.0 0.0 0.00 0.00 0.00 80 1011.7
20260507161339 16 0.0 0.0 0.00 0.00 0.00 80 1011.7
20260507160318 16 0.0 0.0 0.00 0.00 0.00 80 1011.7
20260507155257 16 0.0 0.0 0.00 0.00 0.00 80 1011.6
20260507154237 16 0.0 0.0 0.00 0.00 0.00 80 1011.6
20260507153216 17 0.0 0.0 0.00 0.00 0.00 79 1011.5
20260507152158 19 0.0 0.0 0.00 0.00 0.00 78 1011.5
20260507150113 17 0.0 0.0 0.00 0.00 0.00 81 1011.7
20260507145045 17 0.0 0.0 0.00 0.00 0.00 79 1011.7
20260507144022 18 0.0 0.0 0.00 0.00 0.00 79 1011.8
20260507142957 18 0.0 0.0 0.00 0.00 0.00 82 1011.8
20260507141936 17 0.0 0.0 0.00 0.00 0.00 79 1012.0
20260507135851 17 0.0 0.0 0.00 0.00 0.00 79 1012.1
20260507134830 18 0.0 0.0 0.00 0.00 0.00 78 1012.1
20260507133810 21 0.0 0.0 0.00 0.00 0.00 77 1012.3
20260507132749 18 0.0 0.0 0.00 0.00 0.00 83 1012.5
20260507131728 17 0.0 0.0 0.00 0.00 0.00 80 1012.6
20260507130707 17 0.0 0.0 0.00 0.00 0.00 81 1012.6
20260507125644 16 0.0 0.0 0.00 0.00 0.00 82 1012.6
20260507124623 16 0.0 0.0 0.00 0.00 0.00 82 1012.6
20260507123600 16 0.0 0.0 0.00 0.00 0.00 80 1012.7
20260507122538 17 0.0 0.0 0.00 0.00 0.00 81 1012.8
20260507121517 16 0.0 0.0 0.00 0.00 0.00 80 1012.7
20260507120454 16 0.0 0.0 0.00 0.00 0.00 83 1012.7
20260507115434 15 0.0 0.0 0.00 0.00 0.00 81 1012.7
20260507114413 16 0.0 0.0 0.00 0.00 0.00 82 1012.9
20260507113352 15 0.0 0.0 0.00 0.00 0.00 81 1013.0
20260507112331 15 0.0 0.0 0.00 0.00 0.00 82 1013.2
20260507111311 15 0.0 0.0 0.00 0.00 0.00 81 1013.2
20260507110250 14 0.0 0.0 0.00 0.00 0.00 83 1013.3
20260507104208 13 0.0 0.0 0.00 0.00 0.00 82 1013.6
20260507103148 13 0.0 0.0 0.00 0.00 0.00 82 1013.6
20260507102125 13 0.0 0.0 0.00 0.00 0.00 82 1013.6
20260507101104 13 0.0 0.0 0.00 0.00 0.00 81 1013.6
20260507100042 13 0.0 0.0 0.00 0.00 0.00 80 1013.7
20260507095021 13 0.0 0.0 0.00 0.00 0.00 82 1013.5
20260507094000 13 0.0 0.0 0.00 0.00 0.00 81 1013.6
20260507092936 14 0.0 0.0 0.00 0.00 0.00 83 1013.4
20260507091915 13 0.0 0.0 0.00 0.00 0.00 84 1013.4
20260507090853 12 0.0 0.0 0.00 0.00 0.00 84 1013.5
20260507085832 11 0.0 0.0 0.00 0.00 0.00 85 1013.3
20260507084811 11 0.0 0.0 0.00 0.00 0.00 84 1013.3
20260507083750 11 0.0 0.0 0.00 0.00 0.00 85 1013.2
20260507082729 11 0.0 0.0 0.00 0.00 0.00 84 1013.2
20260507081706 11 0.0 0.0 0.00 0.00 0.00 83 1013.1
20260507080509 12 0.0 0.0 0.00 0.00 0.00 84 1013.1
20260507075449 11 0.0 0.0 0.00 0.00 0.00 85 1013.0
20260507074428 10 0.0 0.0 0.00 0.00 0.00 85 1013.0
20260507073407 10 0.0 0.0 0.00 0.00 0.00 84 1013.0
20260507072345 10 0.0 0.0 0.00 0.00 0.00 84 1012.9
20260507071324 10 0.0 0.0 0.00 0.00 0.00 85 1012.8
20260507070302 10 0.0 0.0 0.00 0.00 0.00 84 1012.9
20260507065242 10 0.0 0.0 0.00 0.00 0.00 84 1012.7
20260507064221 10 0.0 0.0 0.00 0.00 0.00 85 1012.6
20260507063156 10 0.0 0.0 0.00 0.00 0.00 85 1012.7
20260507061114 10 0.0 0.0 0.00 0.00 0.00 85 1012.5
20260507060053 10 0.0 0.0 0.00 0.00 0.00 85 1012.4
20260507055032 10 0.0 0.0 0.00 0.00 0.00 85 1012.3
20260507054011 9 0.0 0.0 0.00 0.00 0.00 86 1012.2
20260507052951 9 0.0 0.0 0.00 0.00 0.00 85 1012.0
20260507051919 9 0.0 0.0 0.00 0.00 0.00 85 1011.9
20260507050859 9 0.0 0.0 0.00 0.00 0.00 85 1011.7
20260507045838 9 0.0 0.0 0.00 0.00 0.00 85 1011.6
20260507044817 9 0.0 0.0 0.00 0.00 0.00 85 1011.5
20260507043756 9 0.0 0.0 0.00 0.00 0.00 85 1011.5
20260507042735 9 0.0 0.0 0.00 0.00 0.00 85 1011.4
20260507041715 9 0.0 0.0 0.00 0.00 0.00 85 1011.4
20260507040651 9 0.0 0.0 0.00 0.00 0.00 85 1011.3
20260507035630 9 0.0 0.0 0.00 0.00 0.00 85 1011.3
20260507034609 8 0.0 0.0 0.00 0.00 0.00 85 1011.3
20260507033548 8 0.0 0.0 0.00 0.00 0.00 84 1011.2
20260507032513 8 0.0 0.0 0.00 0.00 0.00 84 1011.1
20260507031452 8 0.0 0.0 0.00 0.00 0.00 84 1011.0
20260507030432 9 0.0 0.0 0.00 0.00 0.00 84 1011.0
20260507025411 9 0.0 0.0 0.00 0.00 0.00 84 1011.1
20260507024350 9 0.0 0.0 0.00 0.00 0.00 84 1010.9
20260507023326 9 0.0 0.0 0.00 0.00 0.00 84 1010.9
20260507022306 9 0.0 0.0 0.00 0.00 0.00 84 1010.9
20260507021245 9 0.0 0.0 0.00 0.00 0.00 84 1010.9
20260507020224 9 0.0 0.0 0.00 0.00 0.00 84 1010.9
20260507015203 9 0.0 0.0 0.00 0.00 0.00 84 1010.9